Time,TemperatureF,DewpointF,PressureIn,WindDirection,WindDirectionDegrees,WindSpeedMPH,WindSpeedGustMPH,Humidity,HourlyPrecipIn,Conditions,Clouds,dailyrainin,SoftwareType,DateUTC
2013-10-02 00:22:00,69.0,62.0,29.92,SE,138,5.0,9.0,78,0.00,,,0.00,,2013-10-02 05:22:00,
2013-10-02 00:53:00,69.0,63.0,29.92,SSE,163,5.0,7.0,80,0.00,,,0.00,,2013-10-02 05:53:00,
2013-10-02 01:12:00,69.0,62.0,29.92,South,178,6.0,10.0,79,0.00,,,0.00,,2013-10-02 06:12:00,
2013-10-02 01:22:00,69.0,62.0,29.92,SSE,159,4.0,10.0,79,0.00,,,0.00,,2013-10-02 06:22:00,
2013-10-02 01:52:00,68.0,62.0,29.92,SSE,153,4.0,6.0,80,0.00,,,0.00,,2013-10-02 06:52:00,
2013-10-02 02:12:00,68.0,62.0,29.92,SSE,154,3.0,6.0,81,0.00,,,0.00,,2013-10-02 07:12:00,
2013-10-02 02:22:00,68.0,62.0,29.92,SSE,159,4.0,7.0,81,0.00,,,0.00,,2013-10-02 07:22:00,
2013-10-02 02:52:00,68.0,62.0,29.93,SSE,157,4.0,7.0,81,0.00,,,0.00,,2013-10-02 07:52:00,
2013-10-02 03:22:00,69.0,61.0,29.93,South,173,5.0,11.0,77,0.00,,,0.00,,2013-10-02 08:22:00,
2013-10-02 03:52:00,69.0,61.0,29.92,SSE,159,3.0,12.0,77,0.00,,,0.00,,2013-10-02 08:52:00,
2013-10-02 04:11:00,69.0,62.0,29.92,SSE,167,4.0,10.0,78,0.00,,,0.00,,2013-10-02 09:11:00,
2013-10-02 04:21:00,69.0,62.0,29.92,SSW,193,5.0,12.0,79,0.00,,,0.00,,2013-10-02 09:21:00,
2013-10-02 04:54:00,68.0,62.0,29.91,SSE,156,5.0,12.0,81,0.00,,,0.00,,2013-10-02 09:54:00,
2013-10-02 05:23:00,67.0,62.0,29.91,SSE,155,5.0,12.0,83,0.00,,,0.00,,2013-10-02 10:23:00,
2013-10-02 05:52:00,67.0,62.0,29.92,SE,144,3.0,7.0,85,0.00,,,0.00,,2013-10-02 10:52:00,
2013-10-02 06:22:00,66.0,62.0,29.91,South,169,5.0,12.0,87,0.00,,,0.00,,2013-10-02 11:22:00,
2013-10-02 06:52:00,66.0,63.0,29.92,SSE,157,4.0,10.0,89,0.00,,,0.00,,2013-10-02 11:52:00,
2013-10-02 07:12:00,66.0,63.0,29.92,SSE,157,4.0,11.0,90,0.00,,,0.00,,2013-10-02 12:12:00,
2013-10-02 07:22:00,66.0,63.0,29.92,South,182,7.0,12.0,91,0.00,,,0.00,,2013-10-02 12:22:00,
2013-10-02 07:52:00,67.0,65.0,29.93,SSE,155,7.0,13.0,92,0.00,,,0.00,,2013-10-02 12:52:00,
2013-10-02 08:11:00,67.0,65.0,29.93,South,186,6.0,12.0,92,0.00,,,0.00,,2013-10-02 13:11:00,
2013-10-02 08:22:00,67.0,65.0,29.93,SSE,166,3.0,10.0,92,0.00,,,0.00,,2013-10-02 13:22:00,
2013-10-02 08:52:00,68.0,66.0,29.93,SSE,161,4.0,11.0,92,0.00,,,0.00,,2013-10-02 13:52:00,
2013-10-02 09:21:00,68.0,66.0,29.94,SSE,155,9.0,14.0,93,0.00,,,0.00,,2013-10-02 14:21:00,
2013-10-02 09:52:00,70.0,67.0,29.94,SW,223,6.0,14.0,90,0.00,,,0.00,,2013-10-02 14:52:00,
2013-10-02 10:11:00,70.0,66.0,29.94,SSE,150,12.0,18.0,88,0.00,,,0.00,,2013-10-02 15:11:00,
2013-10-02 10:22:00,71.0,67.0,29.94,SSE,156,8.0,16.0,86,0.00,,,0.00,,2013-10-02 15:22:00,
2013-10-02 10:54:00,72.0,68.0,29.95,South,184,8.0,19.0,86,0.00,,,0.00,,2013-10-02 15:54:00,
2013-10-02 11:12:00,72.0,67.0,29.94,SSE,163,12.0,18.0,85,0.00,,,0.00,,2013-10-02 16:12:00,
2013-10-02 11:23:00,73.0,68.0,29.94,SE,137,9.0,15.0,84,0.00,,,0.00,,2013-10-02 16:23:00,
2013-10-02 11:52:00,75.0,68.0,29.93,SSE,154,12.0,21.0,78,0.00,,,0.00,,2013-10-02 16:52:00,
2013-10-02 12:12:00,75.0,68.0,29.93,SSE,159,13.0,19.0,78,0.00,,,0.00,,2013-10-02 17:12:00,
2013-10-02 12:23:00,76.0,68.0,29.93,SSE,148,12.0,24.0,77,0.00,,,0.00,,2013-10-02 17:23:00,
2013-10-02 12:42:00,77.0,69.0,29.92,SSE,165,14.0,19.0,76,0.00,,,0.00,,2013-10-02 17:42:00,
2013-10-02 12:52:00,78.0,69.0,29.91,SSE,159,11.0,19.0,73,0.00,,,0.00,,2013-10-02 17:52:00,
2013-10-02 13:12:00,79.0,69.0,29.91,SSW,205,14.0,20.0,72,0.00,,,0.00,,2013-10-02 18:12:00,
2013-10-02 13:21:00,80.0,69.0,29.90,SSE,150,12.0,17.0,69,0.00,,,0.00,,2013-10-02 18:21:00,
2013-10-02 13:52:00,81.0,69.0,29.88,SSE,165,11.0,18.0,67,0.00,,,0.00,,2013-10-02 18:52:00,
2013-10-02 14:11:00,83.0,69.0,29.88,South,175,8.0,17.0,63,0.00,,,0.00,,2013-10-02 19:11:00,
2013-10-02 14:22:00,82.0,68.0,29.87,SSE,168,11.0,17.0,62,0.00,,,0.00,,2013-10-02 19:22:00,
2013-10-02 14:52:00,84.0,68.0,29.85,SSE,161,8.0,21.0,59,0.00,,,0.00,,2013-10-02 19:52:00,
2013-10-02 15:11:00,83.0,68.0,29.85,SSE,149,14.0,19.0,61,0.00,,,0.00,,2013-10-02 20:11:00,
2013-10-02 15:22:00,82.0,68.0,29.84,South,174,13.0,20.0,62,0.00,,,0.00,,2013-10-02 20:22:00,
2013-10-02 15:52:00,84.0,68.0,29.83,SSE,168,12.0,23.0,59,0.00,,,0.00,,2013-10-02 20:52:00,
2013-10-02 16:11:00,83.0,68.0,29.83,SSE,150,10.0,19.0,61,0.00,,,0.00,,2013-10-02 21:11:00,
2013-10-02 16:22:00,84.0,68.0,29.82,SSE,164,11.0,22.0,58,0.00,,,0.00,,2013-10-02 21:22:00,
2013-10-02 16:44:00,83.0,67.0,29.82,South,190,8.0,18.0,58,0.00,,,0.00,,2013-10-02 21:44:00,
2013-10-02 16:54:00,83.0,67.0,29.81,South,176,10.0,25.0,59,0.00,,,0.00,,2013-10-02 21:54:00,
2013-10-02 17:24:00,83.0,67.0,29.81,South,169,9.0,24.0,58,0.00,,,0.00,,2013-10-02 22:24:00,
2013-10-02 17:44:00,83.0,67.0,29.81,South,183,12.0,18.0,58,0.00,,,0.00,,2013-10-02 22:44:00,
2013-10-02 17:53:00,83.0,68.0,29.81,SSE,167,12.0,18.0,60,0.00,,,0.00,,2013-10-02 22:53:00,
2013-10-02 18:22:00,82.0,67.0,29.80,SSE,160,7.0,20.0,61,0.00,,,0.00,,2013-10-02 23:22:00,
2013-10-02 18:52:00,81.0,68.0,29.81,SSE,168,8.0,20.0,64,0.00,,,0.00,,2013-10-02 23:52:00,
2013-10-02 19:22:00,79.0,67.0,29.80,SSE,163,9.0,16.0,66,0.00,,,0.00,,2013-10-03 00:22:00,
2013-10-02 19:42:00,79.0,67.0,29.81,SSW,194,7.0,15.0,67,0.00,,,0.00,,2013-10-03 00:42:00,
2013-10-02 19:52:00,78.0,67.0,29.82,SSE,168,6.0,10.0,69,0.00,,,0.00,,2013-10-03 00:52:00,
2013-10-02 20:11:00,78.0,67.0,29.81,South,172,5.0,11.0,69,0.00,,,0.00,,2013-10-03 01:11:00,
2013-10-02 20:22:00,77.0,67.0,29.82,South,178,5.0,11.0,71,0.00,,,0.00,,2013-10-03 01:22:00,
2013-10-02 20:42:00,76.0,67.0,29.82,South,171,4.0,9.0,73,0.00,,,0.00,,2013-10-03 01:42:00,
2013-10-02 20:52:00,75.0,67.0,29.81,SSE,157,4.0,7.0,75,0.00,,,0.00,,2013-10-03 01:52:00,
2013-10-02 21:11:00,75.0,67.0,29.82,SSE,160,6.0,9.0,76,0.00,,,0.00,,2013-10-03 02:11:00,
2013-10-02 21:22:00,74.0,66.0,29.82,SSE,150,5.0,9.0,76,0.00,,,0.00,,2013-10-03 02:22:00,
2013-10-02 22:22:00,74.0,66.0,29.82,SSE,160,8.0,14.0,76,0.00,,,0.00,,2013-10-03 03:22:00,
2013-10-02 22:44:00,75.0,67.0,29.82,SSE,155,9.0,14.0,75,0.00,,,0.00,,2013-10-03 03:44:00,
2013-10-02 22:54:00,75.0,67.0,29.82,South,169,9.0,15.0,75,0.00,,,0.00,,2013-10-03 03:54:00,
2013-10-02 23:24:00,74.0,66.0,29.82,SSE,156,8.0,17.0,76,0.00,,,0.00,,2013-10-03 04:24:00,
2013-10-02 23:53:00,74.0,66.0,29.81,SSE,163,8.0,17.0,76,0.00,,,0.00,,2013-10-03 04:53:00,